OBJECT H, 59780

Orbit data source: Space-Track

You're viewing an Uncataloged Satellite

Recently launched and/or uncataloged satellites may have evolving metadata. Metadata may include but not limited to: Owner, Maufacturer, Bus, Motor, and Mission.

OBJECT H, 59780 is a satellite owned by Byuro 1440 (CIS) in SSO that was launched on Thu, 16 May 2024 UTC via a SOYUZ-2-1B launch vehicle from the Plesetsk Missile And Space Complex (PKMTR). Unknown objects in Earth's orbit typically refer to objects detected orbiting the Earth but have not yet been identified or cataloged. These objects could be anything from previously untracked satellites, spent rocket stages, debris from satellite collisions, or even natural meteoroids temporarily captured by Earth's gravity.

Loading next visibility...
Identifier
59780, 2024-092H
Orbit
SSO
Last TLE update
11 hours ago
Origin
Flag of CISBureau 1440 (CIS)
Manufacturer
Byuro 1440
Mission
Operational spacecraft
Bus & Motor
RASSVET-2, Unknown motor
Mass
~200 kg wet, ~200 kg dry
Launch date (UTC)
2024-05-16 (1 year ago)
Launch vehicle
SOYUZ-2-1B
Launch site
Plesetsk Missile And Space Complex (PKMTR)
Object type
Unknown
Shape & HBR
Unknown
Radar Cross Section
Medium (>0.1 m² and <1 m²)

Expand to show TLE details & history

TLE from 11 hours ago
0 OBJECT H
1 59780U 24092H   25173.17663559 -.00000018  00000-0  99473-5 0  9993
2 59780  98.6377 288.3738 0012339 183.1357 176.9751 14.31579131 57380
Epoch: 2025-06-22T04:14Z
TLE epoch observation values (Epoch: 2025-06-22T04:14:21.314Z)
Latitude
-0.00003°
Longitude
-45.82002°
Altitude
798.22 km
Speed
7.45 km/s
True Right ascension
19h 13m 29s
True Declination
0° 00' 00"
Sunlit
Object was in full shadow at epoch
Visualization orbit readout
Latitude
-69.72797°
Longitude
110.49731°
Altitude
809.428 km
Speed
7.449 km/s
Apparent Right ascension
12h 33m 30s
Apparent Declination
-71° 14' 24"
Sunlit
Object is in daylight
Visualization observer readout
Local Sidereal Time
02:32:14
Azimuth
163.765° S
Elevation
-55.272°
Doppler factor
1
Orbital elements
Apogee altitude
792.434 km
Perigee altitude
774.76 km
Semi-major axis
7,161.734 km
Eccentricity
0.00123
Inclination
98.6377°
RAAN
288.3738°
Arg. of periapsis
183.1357°
True anomaly
Unknown
Mean anomaly
176.9751°
Eccentric anomaly
Unknown
Mean motion
3.5811 °/min
Orbital period
100.53 mins
BSTAR
0.0000099473
Loading maneuver chart data...
Loading SW <> Apogee altitude chart data...
Loading historical data...
Loading historical data...
Loading historical data...
Loading historical data...
Loading historical data...
Loading historical data...
Loading historical data...

OBJECT H Visibility forecast

Observer location: undefined°, undefined°

Span
Click to sort rows by Start time (UTC) header in descending order
Start Az.
Max El. time (UTC)
Max El. Az.
Max El.
End time (UTC)
End Az.
8 mins2025-06-22 19:55:27.192Z34.145° NE2025-06-22 19:59:27.192Z94.06° ESE30.566°2025-06-22 20:03:27.192Z159.634° S
6 mins2025-06-22 21:36:27.192Z332.508° NNW2025-06-22 21:38:27.192Z300.608° NW23.713°2025-06-22 21:42:27.192Z242.435° WSW
8 mins2025-06-23 07:12:27.192Z142.514° SSE2025-06-23 07:16:27.192Z68.79° E38.075°2025-06-23 07:20:27.192Z0.15° NNE
5 mins2025-06-23 08:54:27.192Z244.617° WSW2025-06-23 08:56:27.192Z273.242° WNW17.401°2025-06-23 08:59:27.192Z309.426° NW
|